[[{"header":{"parameterUnit":"m.s-1","parameterCategory":1,"la1":30.2992,"la2":30.254,"lo1":-89.0895,"lo2":-89.0443,"dy":0.0025,"dx":0.0025,"nx":19,"ny":19,"refTime":"2026-04-28T03:00:00:Z","depth":0,"parameterNumber":2,"parameterNumberName":"U-component_of_WINDS"},"data":[0,0,0,1.1388,1.139,1.1492,1.1493,1.1622,1.1623,0,0,0,0,0,0,0,0,0,0,0,1.1356,1.1357,1.1388,1.1391,1.1492,1.1493,1.1622,1.1623,0,0,0,0,0,0,0,0,0,0,0,1.1356,1.1357,1.1358,1.1391,1.1492,1.1493,1.1622,1.1546,0,0,0,0,0,0,0,0,0,0,1.1447,1.1415,1.1356,1.1358,1.1392,1.1492,1.1493,1.1542,1.155,1.1575,0,1.1596,0,1.1611,1.1632,1.1632,0,0,0,1.1392,1.1408,1.1437,1.1358,1.1392,1.1492,1.1447,1.1547,1.1556,1.1586,1.1597,1.1602,1.1614,1.1633,1.1633,1.1768,1.1769,0,0,1.1387,1.1374,1.143,1.1443,1.1426,1.1444,1.145,1.1552,1.1564,1.1598,1.1605,1.1616,1.1633,1.1634,1.1768,1.1768,0,0,0,1.1369,1.137,1.1396,1.1438,1.1456,1.1446,1.1454,1.156,1.1569,1.1607,1.1617,1.1634,1.1636,1.1767,1.1768,1.1781,0,0,0,1.1366,1.136,1.1394,1.1387,1.1454,1.1509,1.1459,1.1562,1.1574,1.1617,1.1634,1.1637,1.1766,1.1767,1.178,1.179,0,0,0,1.135,1.1358,1.1372,1.1386,1.1429,1.1507,1.1523,1.1565,1.1581,1.1632,1.1637,1.1766,1.1767,1.1778,1.1788,1.1822,0,0,0,1.133,1.1383,1.1372,1.1435,1.1428,1.1514,1.1522,1.1588,1.1634,1.1635,1.1766,1.1768,1.1778,1.1786,1.182,1.1848,1.1858,0,0,1.1389,1.1389,1.1428,1.1421,1.1505,1.15,1.1588,1.1643,1.1661,1.1732,1.1735,1.178,1.1788,1.1821,1.192,1.1928,0,0,0,1.1442,1.1469,1.1495,1.1537,1.158,1.1618,1.1661,1.1682,1.1743,1.1694,1.1802,1.1807,1.1827,1.1841,1.1848,1.1867,1.1773,1.1773,1.1773,1.1507,1.1526,1.1591,1.1623,1.1664,1.1708,1.1744,1.178,1.1787,1.1813,1.1834,1.1891,1.1907,1.1912,1.1931,1.185,1.185,1.185,1.185,1.1596,1.1638,1.1647,1.1713,1.1733,1.1789,1.1835,1.1838,1.1894,1.1877,1.1896,1.1875,1.192,1.1938,1.1851,1.1851,1.1851,1.1851,1.1851,1.164,1.1664,1.1688,1.1752,1.18,1.183,1.1884,1.1901,1.1917,1.1936,1.1961,1.196,1.1962,1.1947,1.1947,1.1947,1.1947,1.1947,1.1947,1.1677,1.1703,1.1746,1.1796,1.1826,1.1868,1.1914,1.1944,1.1982,1.1991,1.1991,1.1996,1.1921,1.1901,1.1951,1.195,1.195,1.1949,1.1949,1.1759,1.1744,1.1809,1.1839,1.19,1.1947,1.1968,1.2029,1.2057,1.2083,1.2085,1.2026,1.2028,1.2022,1.2006,1.208,1.208,1.208,1.208,1.1797,1.1799,1.187,1.1917,1.1966,1.1992,1.2066,1.2103,1.2138,1.2157,1.2149,1.2129,1.2123,1.2129,1.2121,1.2107,1.2204,1.2204,1.2204,1.1848,1.1857,1.1916,1.195,1.1999,1.2042,1.2113,1.2168,1.2205,1.2209,1.2172,1.2167,1.2135,1.2124,1.2128,1.2115,1.2089,0,0]},{"header":{"parameterUnit":"m.s-1","parameterCategory":1,"la1":30.2992,"la2":30.254,"lo1":-89.0895,"lo2":-89.0443,"dy":0.0025,"dx":0.0025,"nx":19,"ny":19,"refTime":"2026-04-28T03:00:00:Z","depth":0,"parameterNumber":3,"parameterNumberName":"V-component_of_WINDS"},"data":[0,0,0,4.2062,4.2065,4.2177,4.2178,4.2308,4.2309,0,0,0,0,0,0,0,0,0,0,0,4.2023,4.2023,4.2062,4.2065,4.2177,4.2178,4.2308,4.2309,0,0,0,0,0,0,0,0,0,0,0,4.2022,4.2023,4.2024,4.2065,4.2177,4.2178,4.2308,4.2227,0,0,0,0,0,0,0,0,0,0,4.212,4.2078,4.2023,4.2024,4.2066,4.2177,4.2178,4.2223,4.2232,4.2252,0,4.227,0,4.2292,4.2317,4.2318,0,0,0,4.2069,4.207,4.2107,4.2024,4.2067,4.2177,4.2128,4.2228,4.2238,4.2263,4.2272,4.2277,4.2294,4.2318,4.2319,4.2427,4.2428,0,0,4.2063,4.2039,4.21,4.2113,4.2097,4.2124,4.2131,4.2234,4.2241,4.2272,4.228,4.2296,4.2319,4.232,4.2427,4.2428,0,0,0,4.2042,4.2034,4.2069,4.2107,4.2129,4.2127,4.2135,4.2236,4.225,4.2282,4.2298,4.2319,4.2321,4.2427,4.2427,4.2422,0,0,0,4.2039,4.2023,4.2066,4.2052,4.2127,4.2184,4.2135,4.2243,4.2255,4.2297,4.2319,4.2322,4.2427,4.2427,4.2422,4.2423,0,0,0,4.2017,4.202,4.2035,4.2051,4.2099,4.2183,4.2203,4.2246,4.2265,4.2318,4.2322,4.2426,4.2427,4.2421,4.2423,4.2447,0,0,0,4.1987,4.2026,4.2034,4.2083,4.2097,4.218,4.2202,4.2264,4.2309,4.232,4.2427,4.2427,4.2421,4.2422,4.2446,4.2463,4.2468,0,0,4.2022,4.2029,4.206,4.2071,4.2147,4.2165,4.2239,4.2301,4.2326,4.2392,4.2395,4.2422,4.2423,4.2447,4.2503,4.2507,0,0,0,4.2063,4.2085,4.211,4.2154,4.2204,4.2248,4.2302,4.2325,4.2383,4.2356,4.2438,4.2439,4.2454,4.2463,4.2466,4.2481,4.243,4.243,4.243,4.2077,4.2111,4.2165,4.2212,4.2254,4.2311,4.2348,4.2389,4.2407,4.2426,4.2446,4.2477,4.2487,4.2489,4.2504,4.2457,4.2457,4.2457,4.2457,4.2132,4.2169,4.2197,4.226,4.2294,4.2346,4.2403,4.2415,4.2468,4.2463,4.2478,4.2471,4.2492,4.2507,4.2457,4.2457,4.2457,4.2457,4.2457,4.2146,4.2169,4.22,4.2269,4.2317,4.2363,4.2415,4.2443,4.247,4.2485,4.251,4.251,4.2515,4.2495,4.2495,4.2495,4.2495,4.2495,4.2496,4.2147,4.2182,4.2223,4.2283,4.2316,4.2363,4.2423,4.2456,4.2499,4.2516,4.2517,4.2534,4.2489,4.2477,4.2497,4.2497,4.2497,4.2497,4.2496,4.2191,4.2187,4.225,4.2284,4.2357,4.2405,4.2443,4.2508,4.2539,4.2564,4.2579,4.2541,4.2548,4.2546,4.2536,4.2571,4.2571,4.2571,4.2571,4.2203,4.2211,4.2284,4.2336,4.2391,4.2432,4.2502,4.255,4.2597,4.2619,4.2618,4.2608,4.2604,4.2614,4.261,4.2602,4.2653,4.2653,4.2653,4.2232,4.2248,4.2302,4.2352,4.2412,4.2463,4.2531,4.2589,4.2642,4.2657,4.2637,4.2633,4.2617,4.261,4.2624,4.2617,4.2602,0,0]}]]